GFSFLT2_prec_pwat_357.txt.gz
Precipitable_Water
0.86 0.86 0.76 0.60 0.54 0.52 0.52 0.50 0.56 0.60 0.59 0.59 0.62 0.63 0.63 0.62 0.59 0.58 0.55 0.53 0.51 0.50 0.49 0.47 0.45 0.46 0.51 0.56 0.62 0.72 0.80 0.78
0.77 0.81 0.71 0.58 0.55 0.53 0.50 0.51 0.56 0.58 0.56 0.60 0.62 0.63 0.62 0.59 0.51 0.48 0.49 0.50 0.50 0.49 0.48 0.50 0.47 0.46 0.55 0.61 0.69 0.78 0.78 0.78
0.67 0.69 0.71 0.68 0.62 0.53 0.52 0.52 0.54 0.55 0.57 0.65 0.73 0.65 0.54 0.48 0.44 0.42 0.44 0.45 0.45 0.45 0.50 0.55 0.61 0.60 0.63 0.68 0.76 0.81 0.81 0.79
0.54 0.59 0.61 0.58 0.54 0.61 0.58 0.65 0.68 0.67 0.67 0.64 0.63 0.58 0.47 0.43 0.40 0.40 0.45 0.48 0.49 0.53 0.58 0.63 0.69 0.70 0.73 0.75 0.76 0.78 0.81 0.75
0.51 0.55 0.54 0.53 0.56 0.59 0.63 0.65 0.66 0.64 0.61 0.58 0.54 0.53 0.54 0.52 0.49 0.49 0.52 0.56 0.57 0.60 0.64 0.68 0.71 0.72 0.70 0.69 0.70 0.70 0.77 0.77
0.54 0.56 0.56 0.57 0.58 0.62 0.63 0.64 0.63 0.60 0.52 0.48 0.48 0.49 0.50 0.47 0.48 0.51 0.54 0.57 0.59 0.63 0.67 0.70 0.69 0.67 0.66 0.66 0.66 0.66 0.67 0.73
0.55 0.57 0.58 0.59 0.61 0.61 0.65 0.62 0.65 0.60 0.52 0.47 0.49 0.49 0.51 0.53 0.55 0.56 0.57 0.59 0.63 0.67 0.67 0.66 0.64 0.66 0.65 0.63 0.61 0.61 0.60 0.59
0.60 0.56 0.60 0.62 0.63 0.65 0.64 0.67 0.63 0.60 0.51 0.52 0.54 0.55 0.56 0.57 0.57 0.58 0.60 0.65 0.69 0.69 0.66 0.64 0.63 0.63 0.62 0.63 0.60 0.59 0.58 0.58
0.63 0.57 0.59 0.62 0.64 0.65 0.66 0.64 0.63 0.59 0.51 0.56 0.57 0.58 0.59 0.58 0.58 0.58 0.60 0.66 0.69 0.67 0.66 0.67 0.66 0.65 0.62 0.60 0.58 0.58 0.58 0.57
0.67 0.59 0.57 0.60 0.64 0.66 0.65 0.64 0.62 0.59 0.54 0.54 0.57 0.58 0.59 0.58 0.58 0.59 0.63 0.69 0.70 0.68 0.68 0.67 0.65 0.63 0.61 0.58 0.59 0.57 0.55 0.51
0.68 0.61 0.55 0.58 0.62 0.66 0.68 0.67 0.63 0.59 0.58 0.56 0.56 0.57 0.58 0.57 0.58 0.61 0.68 0.71 0.69 0.69 0.69 0.67 0.62 0.61 0.58 0.56 0.58 0.54 0.49 0.45
0.65 0.59 0.58 0.59 0.60 0.66 0.68 0.64 0.64 0.61 0.58 0.56 0.56 0.56 0.57 0.59 0.61 0.65 0.71 0.71 0.71 0.71 0.68 0.67 0.65 0.61 0.56 0.51 0.53 0.52 0.49 0.45
0.66 0.58 0.58 0.57 0.57 0.57 0.59 0.61 0.60 0.60 0.62 0.60 0.59 0.57 0.59 0.61 0.63 0.72 0.78 0.73 0.71 0.70 0.69 0.67 0.64 0.60 0.51 0.44 0.42 0.49 0.51 0.46
0.67 0.61 0.56 0.55 0.57 0.57 0.60 0.59 0.60 0.61 0.62 0.61 0.59 0.58 0.60 0.70 0.73 0.76 0.76 0.72 0.72 0.70 0.69 0.64 0.62 0.58 0.45 0.37 0.24 0.27 0.38 0.29
0.68 0.62 0.57 0.55 0.56 0.58 0.58 0.62 0.62 0.60 0.57 0.57 0.60 0.63 0.74 0.77 0.76 0.77 0.75 0.73 0.68 0.68 0.68 0.64 0.56 0.51 0.41 0.31 0.20 0.19 0.21 0.26
0.77 0.71 0.68 0.67 0.67 0.64 0.63 0.61 0.57 0.58 0.62 0.66 0.65 0.78 0.78 0.77 0.77 0.79 0.76 0.73 0.71 0.69 0.69 0.64 0.51 0.35 0.27 0.23 0.24 0.22 0.18 0.18
0.84 0.76 0.75 0.72 0.73 0.73 0.72 0.70 0.70 0.73 0.72 0.70 0.76 0.80 0.79 0.78 0.79 0.75 0.73 0.71 0.70 0.66 0.63 0.54 0.39 0.27 0.19 0.19 0.20 0.21 0.22 0.19
0.88 0.81 0.79 0.79 0.79 0.80 0.80 0.77 0.78 0.77 0.71 0.71 0.78 0.79 0.80 0.79 0.76 0.74 0.72 0.69 0.67 0.64 0.57 0.45 0.31 0.23 0.22 0.21 0.19 0.20 0.20 0.19
0.90 0.86 0.85 0.87 0.86 0.87 0.88 0.85 0.84 0.83 0.81 0.84 0.82 0.82 0.79 0.76 0.73 0.71 0.68 0.67 0.64 0.58 0.47 0.34 0.25 0.23 0.24 0.23 0.24 0.24 0.23 0.22
0.90 0.91 0.90 0.94 0.95 0.95 0.97 0.93 0.90 0.94 0.94 0.93 0.90 0.86 0.81 0.78 0.71 0.68 0.67 0.66 0.58 0.51 0.37 0.27 0.24 0.25 0.26 0.26 0.25 0.25 0.26 0.26

GFSFLT2_prec_pwat_363.txt.gz
Precipitable_Water
0.83 0.78 0.66 0.59 0.58 0.55 0.52 0.53 0.55 0.56 0.54 0.56 0.57 0.55 0.52 0.50 0.48 0.45 0.46 0.50 0.52 0.53 0.55 0.60 0.65 0.70 0.80 0.80 0.81 0.80 0.69 0.75
0.68 0.60 0.55 0.51 0.52 0.51 0.50 0.54 0.59 0.60 0.62 0.60 0.51 0.42 0.40 0.41 0.41 0.42 0.49 0.55 0.60 0.61 0.59 0.62 0.67 0.74 0.79 0.83 0.83 0.82 0.74 0.71
0.57 0.46 0.49 0.49 0.47 0.50 0.51 0.61 0.66 0.71 0.73 0.66 0.43 0.31 0.34 0.39 0.46 0.52 0.55 0.58 0.62 0.64 0.66 0.66 0.70 0.71 0.74 0.77 0.78 0.75 0.70 0.67
0.66 0.54 0.52 0.46 0.45 0.56 0.59 0.63 0.68 0.71 0.70 0.56 0.37 0.36 0.41 0.48 0.54 0.56 0.58 0.59 0.59 0.58 0.62 0.65 0.65 0.66 0.68 0.67 0.71 0.69 0.66 0.64
0.71 0.61 0.57 0.48 0.55 0.63 0.66 0.66 0.66 0.65 0.59 0.50 0.46 0.45 0.48 0.51 0.56 0.59 0.59 0.60 0.58 0.58 0.61 0.64 0.64 0.61 0.60 0.60 0.61 0.63 0.61 0.59
0.74 0.66 0.62 0.59 0.63 0.66 0.65 0.64 0.59 0.59 0.53 0.50 0.51 0.52 0.54 0.56 0.56 0.58 0.57 0.58 0.57 0.59 0.63 0.65 0.64 0.60 0.60 0.58 0.57 0.57 0.56 0.54
0.66 0.65 0.66 0.63 0.66 0.70 0.69 0.62 0.53 0.52 0.52 0.51 0.48 0.49 0.51 0.57 0.57 0.58 0.57 0.56 0.56 0.59 0.64 0.68 0.64 0.62 0.61 0.57 0.54 0.52 0.53 0.50
0.65 0.66 0.70 0.71 0.69 0.68 0.68 0.64 0.58 0.51 0.53 0.50 0.49 0.52 0.55 0.56 0.56 0.56 0.55 0.59 0.61 0.64 0.68 0.65 0.64 0.64 0.62 0.59 0.54 0.53 0.50 0.45
0.70 0.68 0.74 0.77 0.69 0.66 0.66 0.65 0.59 0.51 0.52 0.52 0.53 0.56 0.55 0.55 0.56 0.56 0.59 0.62 0.63 0.66 0.71 0.67 0.61 0.60 0.58 0.59 0.57 0.52 0.48 0.46
0.76 0.72 0.76 0.76 0.75 0.64 0.64 0.62 0.57 0.54 0.53 0.54 0.54 0.55 0.56 0.56 0.55 0.56 0.62 0.64 0.70 0.73 0.68 0.62 0.61 0.58 0.53 0.53 0.51 0.51 0.49 0.50
0.74 0.70 0.71 0.69 0.69 0.64 0.63 0.60 0.60 0.54 0.53 0.54 0.54 0.55 0.57 0.57 0.56 0.62 0.65 0.69 0.72 0.69 0.68 0.67 0.59 0.56 0.52 0.40 0.42 0.45 0.47 0.48
0.70 0.66 0.66 0.61 0.64 0.64 0.63 0.59 0.59 0.56 0.50 0.52 0.52 0.55 0.59 0.57 0.60 0.63 0.72 0.75 0.68 0.68 0.67 0.66 0.60 0.56 0.47 0.29 0.36 0.39 0.42 0.43
0.76 0.69 0.67 0.61 0.61 0.56 0.58 0.54 0.56 0.55 0.52 0.50 0.53 0.57 0.58 0.57 0.60 0.68 0.78 0.72 0.68 0.69 0.66 0.62 0.54 0.47 0.36 0.20 0.28 0.36 0.36 0.35
0.84 0.78 0.72 0.65 0.65 0.61 0.60 0.57 0.58 0.56 0.55 0.54 0.56 0.55 0.59 0.64 0.69 0.79 0.77 0.71 0.71 0.67 0.62 0.58 0.53 0.42 0.25 0.18 0.13 0.25 0.30 0.28
0.88 0.83 0.73 0.65 0.65 0.66 0.64 0.64 0.65 0.59 0.59 0.58 0.59 0.60 0.65 0.68 0.75 0.79 0.77 0.74 0.68 0.65 0.61 0.56 0.45 0.34 0.22 0.15 0.13 0.14 0.15 0.23
0.95 0.87 0.75 0.67 0.67 0.67 0.62 0.60 0.59 0.62 0.63 0.63 0.63 0.64 0.69 0.75 0.79 0.80 0.78 0.72 0.66 0.64 0.60 0.52 0.42 0.24 0.15 0.18 0.21 0.20 0.16 0.16
0.97 0.88 0.78 0.68 0.73 0.74 0.70 0.70 0.70 0.72 0.73 0.69 0.70 0.74 0.81 0.84 0.85 0.82 0.76 0.71 0.66 0.63 0.59 0.49 0.37 0.20 0.16 0.17 0.18 0.20 0.22 0.20
0.98 0.86 0.78 0.73 0.80 0.78 0.76 0.76 0.79 0.83 0.83 0.78 0.79 0.81 0.87 0.89 0.88 0.83 0.76 0.69 0.64 0.61 0.57 0.47 0.32 0.19 0.19 0.20 0.20 0.20 0.21 0.22
1.04 0.89 0.78 0.76 0.81 0.79 0.84 0.84 0.87 0.90 0.88 0.84 0.82 0.84 0.87 0.89 0.88 0.81 0.75 0.67 0.62 0.59 0.53 0.45 0.27 0.19 0.20 0.21 0.24 0.25 0.26 0.26
1.10 0.94 0.82 0.80 0.81 0.82 0.88 0.88 0.91 0.93 0.93 0.93 0.89 0.88 0.92 0.90 0.88 0.84 0.75 0.69 0.61 0.56 0.52 0.39 0.24 0.20 0.22 0.23 0.24 0.26 0.28 0.29

GFSFLT2_prec_pwat_366.txt.gz
Precipitable_Water
0.86 0.78 0.69 0.64 0.54 0.53 0.57 0.58 0.55 0.52 0.53 0.57 0.58 0.52 0.47 0.43 0.47 0.51 0.53 0.55 0.58 0.61 0.67 0.70 0.78 0.81 0.83 0.83 0.81 0.79 0.74 0.73
0.74 0.65 0.60 0.55 0.53 0.52 0.54 0.56 0.56 0.57 0.57 0.52 0.46 0.42 0.40 0.43 0.50 0.56 0.62 0.62 0.61 0.64 0.67 0.68 0.72 0.80 0.80 0.79 0.75 0.69 0.64 0.63
0.64 0.52 0.51 0.50 0.51 0.56 0.60 0.62 0.63 0.61 0.49 0.40 0.34 0.35 0.43 0.50 0.56 0.60 0.63 0.61 0.62 0.62 0.63 0.65 0.66 0.74 0.79 0.73 0.66 0.64 0.62 0.60
0.55 0.50 0.48 0.47 0.51 0.61 0.65 0.68 0.70 0.68 0.53 0.37 0.38 0.43 0.48 0.54 0.58 0.60 0.60 0.58 0.58 0.57 0.57 0.58 0.62 0.65 0.67 0.64 0.61 0.59 0.56 0.54
0.57 0.52 0.47 0.46 0.51 0.58 0.64 0.67 0.69 0.65 0.48 0.41 0.40 0.46 0.51 0.56 0.58 0.60 0.59 0.58 0.56 0.56 0.57 0.61 0.64 0.65 0.61 0.59 0.57 0.53 0.50 0.50
0.67 0.62 0.49 0.49 0.59 0.61 0.64 0.65 0.65 0.62 0.50 0.49 0.46 0.49 0.52 0.55 0.57 0.58 0.57 0.57 0.55 0.57 0.58 0.61 0.65 0.62 0.58 0.58 0.55 0.52 0.52 0.48
0.69 0.66 0.58 0.61 0.63 0.65 0.67 0.63 0.61 0.58 0.53 0.50 0.50 0.51 0.52 0.56 0.57 0.57 0.57 0.58 0.58 0.58 0.59 0.65 0.68 0.62 0.60 0.55 0.54 0.52 0.50 0.47
0.73 0.72 0.71 0.73 0.72 0.68 0.66 0.57 0.58 0.56 0.54 0.51 0.51 0.53 0.53 0.54 0.55 0.56 0.57 0.59 0.60 0.60 0.64 0.70 0.66 0.60 0.58 0.56 0.52 0.51 0.48 0.47
0.71 0.77 0.80 0.78 0.79 0.75 0.66 0.60 0.56 0.54 0.53 0.53 0.54 0.53 0.53 0.55 0.56 0.57 0.59 0.61 0.61 0.67 0.71 0.70 0.63 0.59 0.54 0.52 0.52 0.48 0.46 0.47
0.73 0.78 0.80 0.81 0.82 0.77 0.65 0.61 0.60 0.55 0.55 0.54 0.54 0.54 0.55 0.56 0.56 0.57 0.59 0.59 0.63 0.71 0.67 0.63 0.59 0.57 0.48 0.45 0.45 0.46 0.44 0.46
0.70 0.67 0.70 0.72 0.72 0.71 0.64 0.62 0.58 0.54 0.55 0.55 0.54 0.56 0.57 0.56 0.58 0.58 0.59 0.62 0.72 0.70 0.65 0.62 0.56 0.55 0.43 0.37 0.38 0.37 0.40 0.42
0.73 0.67 0.72 0.74 0.72 0.68 0.63 0.60 0.60 0.58 0.53 0.54 0.55 0.56 0.58 0.59 0.58 0.59 0.62 0.71 0.70 0.69 0.63 0.59 0.54 0.49 0.36 0.31 0.30 0.31 0.36 0.35
0.85 0.73 0.74 0.74 0.70 0.61 0.54 0.52 0.56 0.52 0.52 0.53 0.55 0.58 0.60 0.60 0.59 0.62 0.67 0.71 0.70 0.68 0.64 0.56 0.51 0.45 0.28 0.26 0.25 0.28 0.31 0.31
0.94 0.80 0.76 0.72 0.69 0.63 0.59 0.57 0.59 0.58 0.54 0.54 0.59 0.59 0.62 0.64 0.61 0.64 0.71 0.73 0.71 0.64 0.61 0.55 0.47 0.37 0.20 0.14 0.17 0.25 0.28 0.28
0.99 0.89 0.79 0.71 0.69 0.69 0.67 0.65 0.62 0.59 0.58 0.54 0.57 0.63 0.66 0.67 0.71 0.76 0.77 0.76 0.68 0.62 0.60 0.56 0.43 0.32 0.19 0.11 0.10 0.11 0.18 0.24
1.09 1.00 0.85 0.73 0.73 0.68 0.65 0.58 0.56 0.61 0.59 0.61 0.63 0.70 0.72 0.76 0.80 0.83 0.80 0.76 0.67 0.63 0.60 0.55 0.44 0.25 0.16 0.17 0.18 0.18 0.14 0.14
1.08 1.06 0.92 0.78 0.73 0.70 0.69 0.66 0.67 0.73 0.75 0.73 0.73 0.76 0.78 0.80 0.85 0.86 0.83 0.75 0.67 0.61 0.58 0.51 0.44 0.25 0.14 0.15 0.17 0.18 0.20 0.18
1.10 1.07 1.00 0.82 0.72 0.73 0.73 0.71 0.79 0.83 0.83 0.80 0.75 0.77 0.81 0.85 0.88 0.89 0.87 0.78 0.68 0.61 0.56 0.51 0.40 0.25 0.18 0.18 0.18 0.16 0.18 0.19
1.08 1.11 1.01 0.85 0.72 0.73 0.81 0.85 0.88 0.87 0.86 0.84 0.79 0.81 0.82 0.85 0.89 0.88 0.86 0.79 0.71 0.64 0.55 0.50 0.39 0.23 0.18 0.19 0.21 0.23 0.25 0.26
1.07 1.12 1.07 0.89 0.74 0.77 0.88 0.89 0.90 0.91 0.89 0.89 0.88 0.83 0.85 0.88 0.88 0.90 0.85 0.78 0.72 0.65 0.55 0.49 0.37 0.24 0.19 0.20 0.21 0.24 0.27 0.27

GFSFLT2_prec_pwat_369.txt.gz
Precipitable_Water
0.92 0.83 0.80 0.71 0.63 0.59 0.57 0.56 0.56 0.57 0.57 0.58 0.57 0.49 0.48 0.49 0.55 0.61 0.61 0.65 0.65 0.76 0.80 0.80 0.80 0.79 0.79 0.78 0.75 0.70 0.66 0.66
0.86 0.76 0.72 0.60 0.59 0.60 0.59 0.56 0.55 0.57 0.59 0.57 0.48 0.45 0.49 0.55 0.59 0.63 0.64 0.65 0.65 0.68 0.74 0.76 0.76 0.76 0.73 0.70 0.66 0.64 0.61 0.61
0.80 0.70 0.60 0.54 0.56 0.60 0.58 0.58 0.58 0.58 0.55 0.49 0.41 0.45 0.51 0.59 0.63 0.65 0.66 0.65 0.62 0.60 0.65 0.69 0.70 0.69 0.68 0.64 0.59 0.57 0.56 0.57
0.73 0.60 0.53 0.54 0.56 0.60 0.61 0.64 0.57 0.50 0.47 0.40 0.43 0.48 0.55 0.60 0.60 0.60 0.60 0.60 0.59 0.59 0.58 0.62 0.65 0.67 0.65 0.59 0.56 0.52 0.50 0.50
0.64 0.57 0.54 0.53 0.61 0.64 0.67 0.70 0.64 0.55 0.51 0.46 0.46 0.51 0.55 0.57 0.59 0.59 0.58 0.58 0.57 0.56 0.55 0.56 0.61 0.64 0.60 0.57 0.55 0.52 0.51 0.49
0.59 0.57 0.54 0.55 0.63 0.63 0.67 0.69 0.60 0.53 0.50 0.48 0.48 0.51 0.56 0.58 0.58 0.58 0.58 0.58 0.56 0.57 0.55 0.57 0.62 0.65 0.60 0.56 0.52 0.51 0.50 0.48
0.58 0.58 0.53 0.56 0.60 0.61 0.66 0.68 0.70 0.54 0.54 0.54 0.53 0.53 0.56 0.58 0.57 0.59 0.58 0.58 0.56 0.54 0.56 0.62 0.66 0.67 0.60 0.55 0.51 0.50 0.47 0.46
0.63 0.62 0.57 0.61 0.67 0.67 0.64 0.65 0.63 0.62 0.56 0.53 0.54 0.54 0.55 0.56 0.57 0.57 0.57 0.58 0.58 0.57 0.64 0.66 0.65 0.65 0.57 0.53 0.52 0.49 0.46 0.45
0.68 0.66 0.63 0.67 0.73 0.75 0.69 0.60 0.62 0.61 0.54 0.54 0.55 0.56 0.56 0.57 0.57 0.56 0.58 0.59 0.57 0.62 0.67 0.69 0.64 0.58 0.52 0.53 0.51 0.47 0.45 0.43
0.83 0.78 0.72 0.75 0.78 0.80 0.73 0.60 0.56 0.56 0.57 0.57 0.55 0.57 0.57 0.58 0.57 0.58 0.59 0.58 0.59 0.66 0.69 0.66 0.59 0.53 0.47 0.45 0.45 0.43 0.44 0.39
0.95 0.75 0.67 0.71 0.73 0.74 0.70 0.64 0.61 0.59 0.57 0.55 0.57 0.58 0.60 0.59 0.58 0.59 0.60 0.57 0.65 0.66 0.67 0.63 0.54 0.46 0.41 0.40 0.41 0.38 0.36 0.35
0.89 0.80 0.70 0.71 0.74 0.73 0.68 0.64 0.62 0.61 0.56 0.55 0.57 0.59 0.61 0.60 0.59 0.60 0.62 0.65 0.66 0.69 0.65 0.61 0.53 0.45 0.35 0.31 0.29 0.30 0.30 0.31
0.93 0.90 0.81 0.72 0.71 0.65 0.60 0.57 0.60 0.59 0.58 0.57 0.58 0.62 0.63 0.60 0.62 0.63 0.63 0.66 0.68 0.72 0.66 0.58 0.49 0.41 0.30 0.24 0.23 0.26 0.27 0.29
0.98 0.96 0.88 0.76 0.71 0.67 0.64 0.63 0.64 0.64 0.60 0.59 0.62 0.63 0.64 0.65 0.64 0.65 0.74 0.75 0.74 0.69 0.67 0.60 0.52 0.40 0.23 0.20 0.18 0.21 0.25 0.27
0.98 1.01 0.96 0.84 0.75 0.71 0.67 0.68 0.66 0.62 0.59 0.58 0.61 0.65 0.68 0.71 0.72 0.73 0.80 0.79 0.71 0.67 0.66 0.59 0.48 0.40 0.24 0.12 0.09 0.11 0.18 0.23
0.99 1.07 1.05 0.94 0.83 0.70 0.61 0.55 0.56 0.61 0.62 0.62 0.68 0.74 0.76 0.78 0.77 0.81 0.85 0.83 0.75 0.68 0.64 0.56 0.48 0.36 0.23 0.16 0.16 0.15 0.12 0.13
0.97 1.06 1.06 1.03 0.91 0.73 0.63 0.59 0.65 0.66 0.71 0.72 0.73 0.77 0.79 0.80 0.81 0.87 0.88 0.87 0.81 0.73 0.62 0.54 0.48 0.36 0.21 0.15 0.16 0.17 0.18 0.15
0.92 1.00 1.06 1.07 0.99 0.78 0.66 0.64 0.65 0.70 0.78 0.80 0.80 0.81 0.81 0.81 0.83 0.89 0.89 0.87 0.83 0.77 0.66 0.55 0.47 0.37 0.24 0.17 0.15 0.15 0.16 0.17
0.89 0.94 1.03 1.08 1.06 0.82 0.72 0.69 0.74 0.76 0.82 0.84 0.84 0.83 0.79 0.78 0.81 0.88 0.89 0.88 0.85 0.77 0.68 0.59 0.47 0.35 0.26 0.18 0.18 0.19 0.20 0.21
0.90 0.94 1.03 1.09 1.06 0.87 0.78 0.78 0.80 0.83 0.89 0.90 0.88 0.86 0.82 0.83 0.83 0.89 0.90 0.90 0.83 0.74 0.69 0.62 0.50 0.35 0.27 0.20 0.19 0.21 0.22 0.24

GFSFLT2_prec_pwat_372.txt.gz
Precipitable_Water
0.99 0.94 0.87 0.80 0.67 0.59 0.59 0.61 0.63 0.66 0.65 0.60 0.58 0.55 0.58 0.61 0.63 0.66 0.77 0.82 0.82 0.80 0.79 0.77 0.77 0.75 0.71 0.69 0.67 0.63 0.60 0.61
0.95 0.90 0.82 0.70 0.60 0.57 0.58 0.60 0.62 0.63 0.64 0.61 0.58 0.56 0.60 0.65 0.67 0.68 0.71 0.77 0.78 0.76 0.73 0.72 0.70 0.67 0.67 0.65 0.62 0.60 0.55 0.55
0.89 0.82 0.71 0.61 0.60 0.59 0.57 0.59 0.62 0.65 0.62 0.57 0.53 0.56 0.62 0.68 0.71 0.70 0.68 0.70 0.74 0.71 0.68 0.66 0.64 0.66 0.66 0.62 0.59 0.54 0.51 0.52
0.86 0.74 0.59 0.59 0.60 0.60 0.59 0.60 0.58 0.56 0.51 0.48 0.51 0.57 0.62 0.65 0.68 0.68 0.66 0.63 0.64 0.65 0.65 0.63 0.63 0.66 0.67 0.60 0.58 0.54 0.52 0.52
0.78 0.70 0.59 0.54 0.58 0.58 0.59 0.55 0.54 0.52 0.46 0.48 0.52 0.55 0.60 0.61 0.60 0.60 0.61 0.60 0.58 0.57 0.57 0.57 0.59 0.64 0.64 0.58 0.55 0.52 0.51 0.50
0.69 0.64 0.59 0.59 0.60 0.62 0.66 0.58 0.55 0.53 0.51 0.50 0.50 0.55 0.59 0.60 0.61 0.62 0.60 0.61 0.58 0.57 0.54 0.57 0.64 0.66 0.65 0.57 0.53 0.50 0.49 0.47
0.61 0.61 0.59 0.65 0.66 0.66 0.68 0.59 0.55 0.55 0.52 0.52 0.54 0.56 0.57 0.61 0.62 0.62 0.61 0.60 0.58 0.54 0.53 0.62 0.65 0.66 0.65 0.58 0.53 0.50 0.48 0.46
0.61 0.59 0.60 0.67 0.66 0.68 0.70 0.66 0.55 0.53 0.56 0.55 0.55 0.56 0.57 0.59 0.61 0.60 0.60 0.61 0.58 0.56 0.59 0.62 0.64 0.65 0.63 0.59 0.53 0.50 0.47 0.44
0.63 0.60 0.60 0.64 0.65 0.68 0.72 0.70 0.66 0.58 0.53 0.54 0.54 0.55 0.57 0.59 0.59 0.59 0.61 0.63 0.58 0.58 0.63 0.65 0.64 0.61 0.59 0.55 0.52 0.48 0.44 0.41
0.75 0.70 0.63 0.63 0.68 0.74 0.73 0.68 0.64 0.61 0.55 0.56 0.56 0.56 0.59 0.60 0.59 0.59 0.62 0.60 0.61 0.64 0.65 0.64 0.60 0.55 0.50 0.48 0.48 0.44 0.38 0.37
0.92 0.86 0.65 0.62 0.70 0.74 0.71 0.62 0.61 0.57 0.56 0.56 0.56 0.58 0.60 0.59 0.60 0.61 0.60 0.58 0.63 0.65 0.65 0.63 0.56 0.52 0.46 0.43 0.39 0.35 0.34 0.33
1.05 0.90 0.70 0.69 0.72 0.74 0.74 0.64 0.63 0.63 0.58 0.56 0.57 0.59 0.61 0.63 0.63 0.60 0.64 0.62 0.64 0.66 0.64 0.62 0.57 0.50 0.40 0.35 0.30 0.29 0.29 0.29
1.02 0.89 0.89 0.81 0.73 0.68 0.67 0.59 0.61 0.61 0.58 0.58 0.58 0.60 0.63 0.64 0.62 0.64 0.66 0.71 0.74 0.71 0.64 0.59 0.56 0.53 0.39 0.30 0.24 0.24 0.26 0.27
0.97 0.94 0.96 0.92 0.79 0.71 0.71 0.66 0.65 0.65 0.63 0.63 0.63 0.65 0.64 0.65 0.65 0.68 0.69 0.76 0.78 0.74 0.69 0.60 0.57 0.55 0.39 0.27 0.17 0.18 0.22 0.25
0.97 0.98 0.97 0.98 0.88 0.78 0.74 0.70 0.68 0.64 0.62 0.63 0.64 0.67 0.71 0.72 0.73 0.73 0.77 0.84 0.80 0.76 0.71 0.64 0.56 0.53 0.38 0.22 0.13 0.11 0.16 0.21
0.97 0.97 0.98 1.04 1.00 0.83 0.71 0.60 0.54 0.59 0.63 0.65 0.67 0.75 0.74 0.76 0.76 0.78 0.83 0.87 0.84 0.81 0.77 0.67 0.56 0.47 0.38 0.25 0.18 0.15 0.12 0.13
0.93 0.95 0.97 1.04 1.04 0.97 0.75 0.65 0.61 0.63 0.66 0.71 0.74 0.76 0.79 0.79 0.80 0.79 0.82 0.86 0.84 0.84 0.80 0.72 0.60 0.46 0.34 0.24 0.18 0.16 0.16 0.14
0.86 0.89 0.93 1.03 1.06 1.07 0.88 0.68 0.61 0.60 0.67 0.76 0.79 0.78 0.79 0.81 0.80 0.79 0.83 0.86 0.86 0.85 0.81 0.75 0.66 0.51 0.35 0.27 0.19 0.15 0.14 0.14
0.84 0.86 0.89 1.00 1.06 1.06 1.00 0.76 0.64 0.65 0.72 0.78 0.80 0.80 0.78 0.78 0.78 0.78 0.80 0.87 0.90 0.85 0.80 0.74 0.66 0.54 0.39 0.29 0.24 0.20 0.20 0.19
0.88 0.88 0.89 0.95 1.01 1.02 1.04 0.84 0.73 0.71 0.77 0.81 0.84 0.85 0.85 0.86 0.81 0.80 0.81 0.87 0.89 0.83 0.80 0.72 0.65 0.57 0.47 0.32 0.25 0.21 0.21 0.21